User: anonymous   Login
Location: Caltech
(34.1382°N, 118.1253°W)
Time: 02:06:40
(UTC-08:00)
Language:

Gbstr 26 Del rocket - Orbit

View from above orbital plane
View from above orbital plane
View from above satellite
View from above satellite

Ground track
Ground track

The orbit data is extracted from the following two-line orbital elements,

1 25876U 99041E   15029.55245850  .00000582  00000-0  14197-3 0  5763
2 25876 051.7642 145.6850 0537564 015.1669 041.3019 14.02853057792485
Epoch (UTC): 29 January 2015 13:15:32
Eccentricity: 0.0537564
inclination: 51.7642°
perigee height: 493 km
apogee height: 1274 km
right ascension of ascending node: 145.6850°
argument of perigee: 15.1669°
revolutions per day: 14.02853057
mean anomaly at epoch: 41.3019°
orbit number at epoch: 79248

The dashed part of the orbit path shows where the satellite is in the earth's shadow,  

DLR